Youngstown, OH

1:34 PM EDT on October 17, 2017 (GMT -0400)
Youngstown-Warren Regional

Weather History for KYNG - May, 2013

Change the Weather History Date:

Thursday, May 30, 2013

  Actual Average Record
Temperature  
Mean Temperature 77 °F 62 °F  
Max Temperature 87 °F 73 °F 90 °F (1942)
Min Temperature 67 °F 51 °F 34 °F (1961)
Degree Days  
Heating Degree Days 0 5  
Month to date heating degree days 190 247  
Since 1 July heating degree days 6100 6274  
Cooling Degree Days 12 2  
Month to date cooling degree days 69 28  
Year to date cooling degree days 76 37  
Growing Degree Days 26 (Base 50)    
Moisture  
Dew Point 61 °F    
Average Humidity 59    
Maximum Humidity 81    
Minimum Humidity 37    
Precipitation  
Precipitation 0.00 in 0.13 in 0.69 in (2005)
Month to date precipitation 1.41 3.66  
Year to date precipitation 11.71 14.66  
Snow  
Snow 0.00 in 0.00 in - ()
Month to date snowfall T 0.0  
Since 1 July snowfall 80.9 62.7  
Snow Depth 0.00 in    
Sea Level Pressure  
Sea Level Pressure 30.11 in    
Wind  
Wind Speed 8 mph (SSW)    
Max Wind Speed 16 mph    
Max Gust Speed 23 mph    
Visibility 10 miles    
Events      
T = Trace of Precipitation, MM = Missing Value Source: NWS Daily Summary

Daily Weather History Graph

Daily Weather History Graph

Search for Another Location

Airport or City:

Trip Planner

Search our weather history database for the weather conditions in past years. The results will help you decide how hot, cold, wet, or windy it might be!

Date:

Astronomy

May. 30, 2013 Rise Set
Actual Time 5:52 AM EDT 8:48 PM EDT
Civil Twilight 5:20 AM EDT 9:21 PM EDT
Nautical Twilight 4:38 AM EDT 10:02 PM EDT
Astronomical Twilight 3:50 AM EDT 10:51 PM EDT
Moon 12:46 AM EDT (5/30) 12:02 PM EDT (5/30)
Length of Visible Light 16h 01m
Length of Day
14h 55m
Waning Gibbous, 62% of the Moon is Illuminated
May 30
Waning Gibbous
May 31
Last Quarter
Jun 8
New
Jun 16
First Quarter
Jun 23
Full

Hourly Weather History & Observations

Time (EDT) Temp. Heat Index Dew Point Humidity Pressure Visibility Wind Dir Wind Speed Gust Speed Precip Events Conditions
12:51 AM 71.1 °F - 59.0 °F 66% 30.08 in 10.0 mi SSW 6.9 mph - N/A   Partly Cloudy
1:51 AM 70.0 °F - 59.0 °F 68% 30.08 in 10.0 mi SSW 5.8 mph - N/A   Partly Cloudy
2:51 AM 69.1 °F - 60.1 °F 73% 30.09 in 10.0 mi SW 8.1 mph - N/A   Scattered Clouds
3:51 AM 69.1 °F - 60.1 °F 73% 30.09 in 10.0 mi SW 8.1 mph - N/A   Scattered Clouds
4:51 AM 69.1 °F - 60.1 °F 73% 30.10 in 10.0 mi SSW 5.8 mph - N/A   Mostly Cloudy
5:51 AM 66.9 °F - 60.1 °F 79% 30.12 in 10.0 mi SSW 4.6 mph - N/A   Mostly Cloudy
6:51 AM 68.0 °F - 61.0 °F 78% 30.13 in 10.0 mi South 4.6 mph - N/A   Scattered Clouds
7:51 AM 72.0 °F - 62.1 °F 71% 30.14 in 10.0 mi South 3.5 mph - N/A   Scattered Clouds
8:51 AM 75.9 °F - 64.0 °F 67% 30.15 in 10.0 mi SW 8.1 mph - N/A   Mostly Cloudy
9:51 AM 80.1 °F 81.9 °F 64.9 °F 60% 30.16 in 10.0 mi SW 8.1 mph - N/A   Mostly Cloudy
10:51 AM 80.1 °F 81.9 °F 64.9 °F 60% 30.16 in 10.0 mi SW 8.1 mph - N/A   Overcast
11:51 AM 81.0 °F 82.7 °F 64.9 °F 58% 30.16 in 10.0 mi SW 9.2 mph - N/A   Overcast
12:51 PM 84.9 °F 86.1 °F 64.0 °F 49% 30.14 in 10.0 mi SW 11.5 mph - N/A   Overcast
1:51 PM 84.9 °F 85.0 °F 61.0 °F 44% 30.14 in 10.0 mi SW 15.0 mph - N/A   Overcast
2:51 PM 84.9 °F 84.4 °F 59.0 °F 41% 30.13 in 10.0 mi South 11.5 mph - N/A   Overcast
3:51 PM 86.0 °F 85.7 °F 60.1 °F 41% 30.12 in 10.0 mi WSW 10.4 mph - N/A   Mostly Cloudy
4:51 PM 86.0 °F 85.4 °F 59.0 °F 40% 30.09 in 10.0 mi SSW 9.2 mph - N/A   Mostly Cloudy
5:51 PM 86.0 °F 85.0 °F 57.9 °F 38% 30.08 in 10.0 mi SW 9.2 mph 16.1 mph N/A   Mostly Cloudy
6:51 PM 84.0 °F 83.8 °F 59.0 °F 43% 30.07 in 10.0 mi South 6.9 mph - N/A   Mostly Cloudy
7:51 PM 82.0 °F 82.4 °F 60.1 °F 47% 30.06 in 10.0 mi SSE 5.8 mph - N/A   Mostly Cloudy
8:51 PM 77.0 °F - 61.0 °F 58% 30.07 in 10.0 mi SE 5.8 mph - N/A   Mostly Cloudy
9:51 PM 73.9 °F - 61.0 °F 64% 30.07 in 10.0 mi SE 6.9 mph - N/A   Scattered Clouds
10:51 PM 75.0 °F - 62.1 °F 64% 30.08 in 10.0 mi South 6.9 mph - N/A   Partly Cloudy
11:51 PM 73.0 °F - 62.1 °F 68% 30.08 in 10.0 mi South 5.8 mph - N/A   Clear